When you browse on this site, cookies collect data to enhance your experience and personalize the content and advertising you see.
Visit our Privacy Policy to learn more. By continuing to use the site, you agree to this use of cookies and data.
  • en France
  • Liste des pays
  • À 7 jours
  • Température de l'eau
  • Carte satellitaire
  • Carte météo
  • Widgets météo
  • user-avatar
    Se connecter

    Météo par heure à La Massana

    Ce jour, 22 Janvier, Mardi

    Heure Température Précipitation Vent Pression Humidité
    00:00 -12°C° 0 mm 2 m/s 603 mmHg 78%
    01:00 -12°C° 0 mm 2 m/s 603 mmHg 72%
    02:00 -12°C° 0 mm 2 m/s 603 mmHg 67%
    03:00 -13°C° 0 mm 2 m/s 602 mmHg 62%
    04:00 -13°C° 0 mm 2 m/s 602 mmHg 59%
    05:00 -13°C° 0 mm 2 m/s 602 mmHg 55%
    06:00 -13°C° 0 mm 2 m/s 601 mmHg 51%
    07:00 -10°C° 0 mm 2 m/s 602 mmHg 49%
    08:00 -9°C° 0 mm 2 m/s 602 mmHg 48%
    09:00 -7°C° 0 mm 2 m/s 603 mmHg 46%
    10:00 -4°C° 0 mm 1 m/s 603 mmHg 42%
    11:00 -2°C° 0 mm 1 m/s 603 mmHg 38%
    12:00 0°C° 0 mm 1 m/s 603 mmHg 34%
    13:00 0°C° 0.1 mm 1 m/s 602 mmHg 42%
    14:00 -1°C° 0.1 mm 1 m/s 601 mmHg 50%
    15:00 -1°C° 0.1 mm 1 m/s 601 mmHg 58%
    16:00 -4°C° 0.7 mm 2 m/s 600 mmHg 67%
    17:00 -6°C° 0.7 mm 3 m/s 600 mmHg 75%
    18:00 -8°C° 0.7 mm 4 m/s 599 mmHg 84%
    19:00 -8°C° 0 mm 3 m/s 599 mmHg 85%
    20:00 -9°C° 0 mm 3 m/s 598 mmHg 86%
    21:00 -9°C° 0 mm 2 m/s 597 mmHg 88%
    22:00 -9°C° 0.1 mm 2 m/s 597 mmHg 88%
    23:00 -8°C° 0.1 mm 2 m/s 597 mmHg 88%

    Demain, 23 Janvier, Mercredi

    Heure Température Précipitation Vent Pression Humidité
    00:00 -7°C° 0.1 mm 1 m/s 597 mmHg 88%
    01:00 -7°C° 0.5 mm 2 m/s 597 mmHg 88%
    02:00 -7°C° 0.5 mm 2 m/s 597 mmHg 87%
    03:00 -6°C° 0.5 mm 2 m/s 597 mmHg 87%
    04:00 -4°C° 0.6 mm 1 m/s 596 mmHg 88%
    05:00 -4°C° 0.6 mm 1 m/s 595 mmHg 89%
    06:00 -6°C° 0.6 mm 1 m/s 594 mmHg 90%
    07:00 -4°C° 1.6 mm 1 m/s 594 mmHg 91%
    08:00 -4°C° 1.6 mm 1 m/s 594 mmHg 93%
    09:00 -4°C° 1.6 mm 1 m/s 594 mmHg 94%
    10:00 -7°C° 1.8 mm 3 m/s 594 mmHg 93%
    11:00 -8°C° 1.8 mm 4 m/s 594 mmHg 92%
    12:00 -9°C° 1.8 mm 6 m/s 594 mmHg 92%
    13:00 -8°C° 1.4 mm 5 m/s 594 mmHg 91%
    14:00 -8°C° 1.4 mm 5 m/s 593 mmHg 91%
    15:00 -8°C° 1.4 mm 5 m/s 593 mmHg 91%
    16:00 -10°C° 1.5 mm 6 m/s 594 mmHg 92%
    17:00 -12°C° 1.5 mm 7 m/s 594 mmHg 94%
    18:00 -13°C° 1.5 mm 8 m/s 594 mmHg 95%
    19:00 -14°C° 0.9 mm 7 m/s 594 mmHg 95%
    20:00 -14°C° 0.9 mm 7 m/s 595 mmHg 94%
    21:00 -14°C° 0.9 mm 7 m/s 595 mmHg 94%
    22:00 -15°C° 0.4 mm 7 m/s 595 mmHg 93%
    23:00 -15°C° 0.4 mm 7 m/s 595 mmHg 92%

    Après-demain, 24 Janvier, Jeudi

    Heure Température Précipitation Vent Pression Humidité
    00:00 -17°C° 0.4 mm 7 m/s 595 mmHg 91%
    01:00 -17°C° 0.8 mm 7 m/s 595 mmHg 92%
    02:00 -17°C° 0.8 mm 7 m/s 595 mmHg 92%
    03:00 -17°C° 0.8 mm 8 m/s 596 mmHg 93%
    04:00 -17°C° 0.5 mm 7 m/s 596 mmHg 93%
    05:00 -17°C° 0.5 mm 7 m/s 596 mmHg 93%
    06:00 -16°C° 0.5 mm 6 m/s 596 mmHg 93%
    07:00 -16°C° 0.3 mm 6 m/s 597 mmHg 92%
    08:00 -16°C° 0.3 mm 6 m/s 598 mmHg 90%
    09:00 -16°C° 0.3 mm 6 m/s 598 mmHg 89%
    10:00 -15°C° 0.1 mm 6 m/s 599 mmHg 87%
    11:00 -15°C° 0.1 mm 6 m/s 599 mmHg 84%
    12:00 -14°C° 0.1 mm 6 m/s 599 mmHg 82%
    13:00 -14°C° 0.1 mm 6 m/s 599 mmHg 83%
    14:00 -14°C° 0.1 mm 6 m/s 599 mmHg 84%
    15:00 -14°C° 0.1 mm 6 m/s 599 mmHg 85%
    16:00 -14°C° 0.2 mm 6 m/s 600 mmHg 86%
    17:00 -14°C° 0.2 mm 5 m/s 600 mmHg 88%
    18:00 -14°C° 0.2 mm 5 m/s 601 mmHg 89%
    19:00 -14°C° 0.1 mm 5 m/s 601 mmHg 89%
    20:00 -15°C° 0.1 mm 4 m/s 601 mmHg 89%
    21:00 -15°C° 0.1 mm 4 m/s 602 mmHg 89%
    22:00 -15°C° 0 mm 4 m/s 602 mmHg 87%
    23:00 -16°C° 0 mm 4 m/s 601 mmHg 86%

    25 Janvier, Vendredi

    Heure Température Précipitation Vent Pression Humidité
    00:00 -17°C° 0 mm 4 m/s 601 mmHg 84%
    01:00 -17°C° 0 mm 4 m/s 601 mmHg 79%
    02:00 -17°C° 0 mm 4 m/s 601 mmHg 74%
    03:00 -17°C° 0 mm 4 m/s 601 mmHg 69%
    04:00 -16°C° 0 mm 4 m/s 601 mmHg 67%
    05:00 -16°C° 0 mm 4 m/s 602 mmHg 66%
    06:00 -15°C° 0 mm 4 m/s 602 mmHg 64%
    07:00 -12°C° 0 mm 4 m/s 603 mmHg 67%
    08:00 -11°C° 0 mm 4 m/s 604 mmHg 70%
    09:00 -9°C° 0 mm 4 m/s 606 mmHg 73%
    10:00 -7°C° 0 mm 4 m/s 606 mmHg 77%
    11:00 -6°C° 0 mm 5 m/s 607 mmHg 81%
    12:00 -5°C° 0 mm 5 m/s 607 mmHg 84%
    13:00 -4°C° 0 mm 5 m/s 607 mmHg 86%
    14:00 -3°C° 0 mm 4 m/s 607 mmHg 88%
    15:00 -3°C° 0 mm 4 m/s 607 mmHg 90%
    16:00 -4°C° 0 mm 4 m/s 607 mmHg 90%
    17:00 -4°C° 0 mm 4 m/s 607 mmHg 91%
    18:00 -5°C° 0 mm 4 m/s 606 mmHg 91%
    19:00 -5°C° 0 mm 4 m/s 607 mmHg 92%
    20:00 -5°C° 0 mm 4 m/s 607 mmHg 92%
    21:00 -5°C° 0 mm 3 m/s 607 mmHg 92%
    22:00 -5°C° 0 mm 3 m/s 606 mmHg 92%
    23:00 -6°C° 0 mm 3 m/s 606 mmHg 92%

    26 Janvier, Samedi

    Heure Température Précipitation Vent Pression Humidité
    00:00 -6°C° 0 mm 3 m/s 606 mmHg 92%
    01:00 -6°C° 0 mm 2 m/s 605 mmHg 92%
    02:00 -6°C° 0 mm 2 m/s 605 mmHg 92%
    03:00 -7°C° 0 mm 2 m/s 604 mmHg 92%
    04:00 -7°C° 0 mm 2 m/s 604 mmHg 91%
    05:00 -7°C° 0 mm 2 m/s 603 mmHg 90%
    06:00 -7°C° 0 mm 2 m/s 603 mmHg 89%
    07:00 -6°C° 0 mm 2 m/s 604 mmHg 87%
    08:00 -5°C° 0 mm 2 m/s 604 mmHg 86%
    09:00 -1°C° 0 mm 1 m/s 604 mmHg 84%
    10:00 0°C° 0 mm 1 m/s 604 mmHg 86%
    11:00 +1°C° 0 mm 1 m/s 605 mmHg 88%
    12:00 +2°C° 0 mm 1 m/s 605 mmHg 90%
    13:00 +2°C° 0 mm 1 m/s 604 mmHg 91%
    14:00 +1°C° 0 mm 1 m/s 603 mmHg 92%
    15:00 +1°C° 0 mm 1 m/s 602 mmHg 94%
    16:00 -2°C° 0.6 mm 2 m/s 602 mmHg 94%
    17:00 -4°C° 0.6 mm 3 m/s 601 mmHg 94%
    18:00 -5°C° 0.6 mm 4 m/s 601 mmHg 94%
    19:00 -6°C° 0.2 mm 3 m/s 601 mmHg 93%
    20:00 -7°C° 0.2 mm 3 m/s 600 mmHg 93%
    21:00 -8°C° 0.2 mm 3 m/s 600 mmHg 92%
    22:00 -8°C° 0.4 mm 3 m/s 600 mmHg 93%
    23:00 -8°C° 0.4 mm 3 m/s 600 mmHg 93%

    27 Janvier, Dimanche

    Heure Température Précipitation Vent Pression Humidité
    00:00 -8°C° 0.4 mm 3 m/s 600 mmHg 93%
    01:00 -9°C° 0.9 mm 4 m/s 600 mmHg 94%
    02:00 -10°C° 0.9 mm 4 m/s 600 mmHg 95%
    03:00 -10°C° 0.9 mm 4 m/s 599 mmHg 96%
    04:00 -11°C° 0.6 mm 5 m/s 599 mmHg 95%
    05:00 -12°C° 0.6 mm 5 m/s 599 mmHg 94%
    06:00 -12°C° 0.6 mm 6 m/s 600 mmHg 92%
    07:00 -12°C° 0.5 mm 5 m/s 600 mmHg 92%
    08:00 -11°C° 0.5 mm 5 m/s 600 mmHg 91%
    09:00 -11°C° 0.5 mm 5 m/s 600 mmHg 91%
    10:00 -10°C° 0.5 mm 5 m/s 600 mmHg 89%
    11:00 -10°C° 0.5 mm 5 m/s 600 mmHg 88%
    12:00 -10°C° 0.5 mm 5 m/s 600 mmHg 86%
    13:00 -10°C° 0.8 mm 5 m/s 600 mmHg 87%
    14:00 -8°C° 0.8 mm 4 m/s 599 mmHg 88%
    15:00 -8°C° 0.8 mm 4 m/s 599 mmHg 90%
    16:00 -8°C° 1.1 mm 3 m/s 598 mmHg 91%
    17:00 -8°C° 1.1 mm 3 m/s 598 mmHg 93%
    18:00 -7°C° 1.1 mm 2 m/s 598 mmHg 95%
    19:00 -8°C° 0.9 mm 2 m/s 598 mmHg 94%
    20:00 -9°C° 0.9 mm 3 m/s 598 mmHg 94%
    21:00 -9°C° 0.9 mm 3 m/s 598 mmHg 94%
    22:00 -10°C° 0.3 mm 3 m/s 598 mmHg 94%
    23:00 -10°C° 0.3 mm 3 m/s 598 mmHg 93%
    Voir plus